DW5542 Weather Reports


Display with metric or nautical units.
time (UTC)temp
F
wind
direction
speed
MPH
gust
MPH
rain 1hr
in
rain 24hr
in
rain mn
in
humidity
%
barometer
mb
20260504034504 63 149 0.0 0.0 0.00 0.00 0.00 82 1010.9
20260504033002 63 149 0.0 0.0 0.00 0.00 0.00 82 1011.2
20260504031502 63 149 0.0 0.0 0.00 0.00 0.00 83 1011.2
20260504030002 63 149 0.0 0.0 0.00 0.00 0.00 83 1011.2
20260504024600 63 149 0.0 0.0 0.00 0.00 0.00 84 1011.3
20260504023103 63 149 0.0 0.0 0.00 0.00 0.00 85 1011.2
20260504021558 63 150 0.0 0.0 0.00 0.00 0.00 85 1011.2
20260504014606 63 149 0.0 0.0 0.00 0.00 0.00 86 1011.1
20260504013101 63 149 0.0 0.0 0.00 0.00 0.00 86 1011.2
20260504011557 63 149 0.0 0.0 0.00 0.00 0.00 86 1011.3
20260504010056 63 149 0.0 0.0 0.00 0.00 0.00 86 1011.3
20260504004554 64 149 0.0 0.0 0.00 0.00 0.00 87 1011.4
20260504003101 64 149 0.0 0.0 0.00 0.00 0.00 86 1011.5
20260504001604 64 149 0.0 0.0 0.00 0.00 0.00 86 1011.7
20260504000105 64 149 0.0 0.0 0.00 0.00 0.00 85 1011.8
20260503234546 64 149 0.0 0.0 0.00 0.00 0.00 86 1012.0
20260503233047 64 148 0.0 0.0 0.00 0.00 0.00 86 1012.0
20260503231545 64 148 0.0 0.0 0.00 0.00 0.00 86 1012.1
20260503230045 64 148 0.0 0.0 0.00 0.00 0.00 86 1012.1
20260503224545 64 148 0.0 0.0 0.00 0.00 0.00 85 1012.0
20260503223042 64 148 0.0 0.0 0.00 0.00 0.00 86 1012.1
20260503221551 64 148 0.0 0.0 0.00 0.00 0.00 86 1012.2
20260503220039 64 158 0.0 0.0 0.00 0.00 0.00 86 1012.3
20260503214538 64 158 0.0 0.0 0.00 0.00 0.00 86 1012.5
20260503213037 64 179 0.0 0.0 0.00 0.00 0.00 86 1012.6
20260503211537 64 165 0.0 0.0 0.00 0.00 0.00 86 1012.5
20260503210036 64 155 0.0 0.0 0.00 0.00 0.00 86 1012.3
20260503204540 64 149 0.0 0.0 0.00 0.00 0.00 87 1012.3
20260503203035 64 172 0.0 0.0 0.00 0.00 0.00 87 1011.9
20260503201535 64 149 0.0 0.0 0.00 0.00 0.00 87 1011.7
20260503200034 64 166 0.0 0.0 0.00 0.00 0.00 86 1011.5
20260503194534 64 139 0.0 0.0 0.00 0.00 0.00 85 1011.5
20260503193040 64 122 0.0 0.0 0.00 0.00 0.00 85 1011.2
20260503191532 65 120 0.0 0.0 0.00 0.00 0.00 84 1011.4
20260503190041 65 98 0.0 0.0 0.00 0.00 0.00 83 1011.1
20260503184531 65 108 0.0 6.0 0.00 0.00 0.00 83 1011.2
20260503183030 65 104 1.0 7.0 0.00 0.00 0.00 82 1011.0
20260503181529 65 145 4.0 7.0 0.00 0.00 0.00 81 1011.1
20260503180030 66 101 3.0 7.0 0.00 0.00 0.00 80 1010.8
20260503174531 65 142 4.0 9.0 0.00 0.00 0.00 79 1011.0
20260503173028 65 142 1.0 6.0 0.00 0.00 0.00 80 1010.9
20260503171528 65 139 1.0 6.0 0.00 0.00 0.00 80 1011.0
20260503081533 64 150 0.0 0.0 0.00 0.00 0.00 85 1014.0
20260503071533 63 128 0.0 0.0 0.00 0.00 0.00 90 1013.3
20260503054507 0 0.0 0.0 0.00 0.00 0.00 1013.1
20260503053008 0 0.0 0.0 0.00 0.00 0.00 1013.2
20260503051558 0 0.0 0.0 0.00 0.00 0.00 1013.1
20260503050055 0 0.0 0.0 0.00 0.00 0.00 1013.2
20260503044550 0 0.0 0.0 0.00 0.00 0.00 1013.0
20260503043047 0 0.0 0.0 0.00 0.00 0.00 1012.9
20260503041544 63 103 0.0 0.0 0.00 0.00 0.00 90 1013.2
20260503040043 63 103 0.0 0.0 0.00 0.00 0.00 91 1013.1